Temperature
9 9 9 11 11 12 11 11 12 12 13 12 12 13 14 14 14 14 14 15 15 15 15 15 15 15 16 17 18 18 19 19 18 18 17 15 14 14 14 13 13 13 13 12
8 8 10 10 10 10 10 10 10 11 12 11 11 12 13 14 14 14 14 15 15 15 15 15 15 15 15 16 17 18 19 19 18 18 17 15 14 14 13 13 13 13 12 12
9 9 9 9 9 9 9 9 10 10 11 11 10 12 15 16 15 14 14 14 14 15 15 16 16 16 15 16 17 18 18 18 18 17 16 15 14 13 13 13 13 12 12 11
8 9 8 8 8 9 9 10 9 9 9 10 10 10 14 15 15 15 15 15 15 15 15 15 15 16 15 16 16 17 17 17 17 17 17 16 14 13 13 12 12 11 11 11
8 8 8 8 9 9 9 9 9 9 9 8 9 8 12 15 14 15 15 15 15 15 15 15 15 15 15 15 16 17 17 16 16 16 16 14 13 13 13 12 11 11 10 10
8 8 8 8 9 9 9 8 8 8 7 7 10 10 12 16 16 15 16 15 15 15 14 14 14 14 14 14 15 16 16 16 16 15 14 13 13 13 12 12 11 10 10 10
7 8 8 8 8 8 8 7 8 8 7 9 12 11 12 15 15 15 15 15 15 14 14 14 14 14 13 13 14 15 16 15 15 14 13 13 12 12 12 12 11 10 10 10
7 8 8 8 8 8 8 8 8 9 10 12 11 10 13 15 15 14 14 14 13 13 13 13 13 13 13 13 14 15 15 15 14 13 12 12 12 12 12 11 11 10 10 9
8 8 8 8 8 8 7 7 9 8 8 8 10 12 14 14 14 14 14 13 13 13 13 13 13 12 12 12 13 14 14 14 13 12 12 11 11 11 11 10 10 9 9 9
8 7 8 8 7 7 9 8 7 6 7 9 11 12 13 14 14 14 13 13 12 12 12 12 12 11 11 10 11 12 12 13 12 12 11 11 11 11 10 9 9 9 9 8
8 7 7 7 6 7 7 6 6 7 8 8 10 13 15 14 13 13 13 12 12 11 11 11 11 10 9 8 8 9 10 10 11 11 11 11 10 9 9 8 8 8 8 7
8 7 7 8 9 9 9 8 7 7 7 8 8 11 14 13 13 12 12 11 11 10 10 10 9 9 8 7 7 7 8 10 10 11 10 10 9 8 8 8 8 8 7 6
7 6 7 9 8 7 7 8 8 7 7 7 7 10 13 12 12 11 11 10 10 9 8 8 8 7 6 6 6 6 8 9 10 10 10 9 8 8 8 8 7 7 6 6
8 6 7 9 10 9 7 7 7 6 6 7 8 10 11 11 11 11 10 10 9 8 7 7 6 6 5 5 5 6 8 9 10 9 9 8 8 7 7 7 7 6 5 5
7 6 7 8 9 9 8 8 8 7 7 7 8 9 10 11 10 10 9 8 8 7 6 5 5 4 4 4 5 7 8 9 9 8 8 7 7 7 7 6 6 5 4 4
7 7 7 8 9 9 9 9 8 8 8 7 8 8 10 10 9 9 8 8 7 6 5 4 3 3 3 4 6 7 8 8 8 8 7 7 7 6 6 5 5 4 3 3
7 7 7 8 10 9 9 10 9 8 9 8 8 9 10 10 9 9 8 7 6 5 4 3 3 3 3 4 6 7 7 7 7 7 7 6 6 6 5 4 3 3 2 2
7 7 7 8 9 9 12 11 10 9 9 10 9 10 10 9 8 7 7 7 6 5 3 3 2 2 3 4 5 7 6 6 6 6 6 6 5 5 4 3 2 2 1 1
8 7 7 7 9 10 12 11 9 9 10 10 10 10 10 9 9 8 6 6 6 5 4 3 3 4 4 5 6 6 6 6 6 6 5 5 4 4 3 2 1 1 0 0
7 7 7 7 8 10 12 11 10 9 10 11 10 10 10 10 11 8 6 6 5 4 4 4 4 4 5 5 6 6 6 6 5 5 4 4 3 2 2 1 1 0 -0 -0
7 7 7 7 8 10 12 11 10 11 11 10 9 9 9 9 8 6 5 5 5 5 5 5 5 5 6 6 6 6 6 5 5 4 3 2 2 1 1 0 -0 -0 -1 -1
9 8 8 8 8 10 12 11 11 11 9 8 8 7 7 5 5 4 5 5 5 4 4 5 5 5 5 5 6 6 5 4 4 3 2 2 1 1 0 -0 -1 -1 -1 -2
9 10 10 10 11 12 10 10 9 8 7 7 6 5 6 4 4 4 4 4 4 4 4 4 5 5 4 4 5 5 4 3 3 2 1 1 0 -0 -0 -1 -1 -2 -2 -2
9 9 9 9 11 11 10 9 8 7 6 5 5 5 5 4 4 4 4 4 4 4 4 4 4 4 4 4 4 4 3 2 2 1 1 0 -0 -1 -1 -1 -2 -2 -3 -3
10 9 9 10 11 11 10 8 7 7 6 5 5 5 5 5 4 4 3 3 3 3 3 3 4 4 4 3 3 3 2 2 1 1 0 -0 -1 -1 -2 -2 -2 -3 -3 -4
10 10 10 11 12 11 10 7 7 6 5 5 5 4 3 4 3 4 3 3 3 3 3 3 4 4 3 3 2 2 1 1 0 0 -1 -1 -1 -2 -2 -3 -3 -3 -4 -5
Wind_Speed
7 7 10 12 14 10 6 9 13 12 10 14 21 26 24 22 23 24 24 23 23 23 22 20 19 17 15 14 13 13 13 14 14 12 12 10 9 8 7 7 11 13 14 14
6 11 12 8 8 11 13 14 16 14 12 12 21 30 27 26 28 27 26 26 25 25 24 23 21 18 16 15 14 13 14 15 16 14 12 9 9 7 8 8 10 13 14 13
10 2 5 10 11 13 15 16 16 14 15 15 18 23 20 15 19 21 23 24 25 25 25 24 24 22 18 17 15 13 15 16 17 16 12 11 9 7 6 8 8 10 12 12
10 8 5 8 11 12 11 10 13 13 10 8 7 12 17 12 13 15 17 18 20 21 22 23 23 23 21 18 15 14 15 16 17 18 17 19 12 10 8 9 9 10 12 12
8 6 9 12 12 12 7 4 7 9 11 12 12 11 18 12 15 14 16 18 18 19 20 21 22 22 21 18 15 14 16 16 18 18 19 18 14 12 12 12 14 12 10 11
7 6 6 7 7 11 6 4 8 9 8 10 14 14 17 13 13 13 13 15 16 17 18 19 19 19 19 17 15 15 17 17 18 18 18 18 19 19 19 17 15 11 9 9
8 10 9 6 6 7 9 5 4 5 7 11 7 11 16 15 10 12 14 15 14 14 15 16 17 17 17 18 17 17 19 19 19 19 18 18 20 22 22 19 16 14 11 9
6 6 10 11 11 8 13 9 7 6 7 9 8 13 14 13 11 12 14 14 14 15 14 15 15 15 17 19 19 20 20 20 20 19 18 18 19 15 15 16 15 13 10 10
7 4 4 9 10 9 7 10 8 7 11 12 12 15 16 15 15 14 13 13 13 14 14 14 14 14 16 19 20 21 21 21 20 20 20 19 18 16 16 16 14 11 11 11
6 4 4 5 7 11 10 5 6 6 6 10 15 20 15 14 13 12 12 12 13 15 15 14 11 12 14 17 18 19 20 21 21 21 19 17 18 17 16 15 15 14 14 12
8 6 3 6 11 14 12 8 9 8 8 8 13 14 8 10 10 11 12 13 14 15 15 12 9 9 13 15 17 18 20 21 20 20 20 20 18 17 16 15 15 14 13 12
11 6 7 11 10 12 14 15 14 10 12 12 12 17 10 10 11 11 13 14 14 15 14 10 6 9 14 16 17 19 20 20 20 20 20 20 19 17 16 16 15 14 13 11
10 6 4 4 6 8 10 16 20 16 12 15 17 17 7 8 12 13 14 16 14 12 9 3 5 11 15 16 17 18 19 19 19 20 20 20 18 17 17 16 15 13 12 10
9 7 9 9 7 6 10 15 17 17 14 18 24 29 28 22 20 19 19 16 12 8 3 5 9 13 15 16 17 18 18 19 20 20 20 19 18 17 16 15 14 12 11 9
8 7 11 17 20 20 23 25 22 22 22 20 26 28 30 24 20 18 14 10 6 2 5 9 12 14 15 16 17 17 18 18 19 20 19 18 17 16 15 14 13 11 10 8
7 6 8 15 18 19 23 23 22 20 19 22 26 27 23 19 15 12 10 7 5 3 8 12 14 15 16 16 17 18 18 18 18 19 19 18 17 16 14 13 12 10 9 7
6 5 5 9 13 15 11 10 11 11 12 13 16 18 17 15 12 10 8 6 5 7 12 13 14 14 15 16 18 19 19 18 18 19 18 17 16 15 13 12 11 9 7 5
7 5 4 6 10 6 3 2 8 12 13 13 16 17 15 11 9 8 5 2 5 11 13 14 14 14 15 16 17 18 18 19 19 18 17 16 15 14 12 11 9 7 5 4
12 7 4 4 6 11 9 3 4 6 7 7 10 12 11 7 4 5 6 4 9 13 14 14 14 16 16 17 18 19 19 18 18 17 16 15 14 13 11 10 8 6 4 2
11 9 6 4 5 5 5 5 3 4 5 9 10 9 7 4 2 5 6 9 13 15 14 15 16 17 17 17 18 19 19 18 17 16 15 14 12 12 10 9 7 4 3 1
6 6 8 8 6 8 8 6 3 3 7 12 10 7 3 2 3 5 8 12 14 15 16 17 17 16 16 17 18 18 18 16 16 15 14 12 11 10 9 7 5 4 2 0
8 6 7 6 7 7 3 3 3 6 7 8 7 4 2 6 8 9 11 13 14 15 16 16 16 15 15 16 18 18 17 16 15 14 13 12 10 8 7 6 4 2 1 2
8 7 5 7 8 6 3 5 7 6 7 5 3 1 7 8 9 11 12 13 14 15 15 15 17 17 14 14 16 19 16 15 15 14 12 11 9 7 5 4 3 1 1 3
5 5 5 7 10 10 9 7 4 3 3 3 1 4 7 10 13 14 13 14 14 15 15 16 17 17 15 14 14 17 16 15 15 14 11 9 8 6 5 3 2 1 2 3
4 6 5 8 9 9 4 2 2 3 4 5 6 6 10 15 15 15 14 14 14 14 14 15 16 17 17 16 15 14 14 14 14 12 10 8 6 5 3 2 1 2 2 4
7 8 7 6 3 3 3 3 3 4 5 7 10 12 12 13 16 16 15 14 15 15 15 16 17 17 16 16 15 12 12 12 13 10 8 5 4 3 2 1 1 1 3 6
Wind_Direction
169 195 213 215 221 248 265 260 263 267 276 286 275 275 273 271 267 265 263 261 260 259 258 256 254 252 246 237 227 216 202 189 179 178 177 171 164 149 136 133 136 136 134 131
173 226 232 233 231 242 250 261 268 278 277 279 282 281 278 267 260 258 259 258 256 255 253 250 247 244 238 230 219 207 196 184 179 179 175 168 144 125 117 117 121 127 128 128
206 179 210 212 222 234 244 251 264 275 295 278 286 287 274 259 250 252 253 254 254 251 249 245 240 235 230 225 214 201 192 182 178 169 153 136 121 116 114 119 117 121 123 123
224 223 208 205 222 228 252 251 257 269 278 282 284 293 286 277 261 254 253 251 250 248 246 243 239 232 224 220 210 198 187 179 173 165 164 163 162 154 149 141 129 122 120 122
207 206 214 226 231 220 244 246 249 262 271 278 254 261 281 269 260 259 255 256 256 255 251 246 240 234 225 215 202 190 180 176 172 172 171 169 157 140 133 130 128 122 121 122
231 207 217 229 229 220 220 238 260 256 259 264 252 235 276 276 269 268 263 264 265 264 260 254 247 236 226 210 194 183 175 174 172 171 169 164 149 143 141 142 137 132 131 127
229 224 216 197 188 187 197 214 253 239 231 250 254 238 258 278 272 264 270 277 281 278 271 261 249 233 218 202 188 180 174 170 170 167 164 157 153 150 150 148 146 144 141 138
214 225 202 202 211 200 197 206 226 259 262 277 257 248 261 276 271 264 267 277 287 287 281 271 255 233 213 197 187 180 173 168 166 162 155 150 149 146 146 146 145 144 140 137
209 234 179 203 204 201 189 214 236 268 280 275 260 259 270 261 258 257 264 278 293 299 292 281 264 234 210 194 185 178 170 163 160 154 147 145 145 143 142 140 136 132 131 133
210 239 213 186 197 219 225 207 202 217 263 270 270 271 269 272 262 261 273 288 301 308 304 291 269 229 203 189 179 171 164 157 152 147 143 141 141 139 138 136 135 133 132 133
204 220 217 190 208 205 199 208 213 231 242 264 282 279 289 277 266 273 282 290 300 308 308 296 267 213 185 171 165 159 153 148 145 142 139 137 137 137 134 132 132 131 132 135
200 215 247 238 230 222 218 220 215 233 242 243 266 278 285 269 269 278 286 291 301 306 305 291 247 177 162 158 155 151 147 144 141 138 136 134 134 134 132 131 130 131 131 132
172 198 257 249 210 210 232 236 234 238 254 255 259 270 275 271 279 283 288 293 299 303 301 265 169 155 152 151 148 144 141 138 137 135 133 132 133 133 131 130 129 129 129 129
179 207 228 255 279 269 254 251 242 236 246 256 255 266 276 281 285 287 289 291 290 289 254 163 147 144 143 143 141 138 136 135 135 134 132 131 132 131 129 128 128 128 129 130
198 237 242 260 272 274 271 272 265 252 248 255 266 273 280 287 291 290 288 286 282 253 161 146 140 137 137 137 135 134 133 135 134 131 128 127 126 125 125 126 126 126 125 125
209 255 271 274 273 273 274 273 270 264 255 253 265 275 281 292 292 290 283 272 252 195 150 139 136 137 138 139 136 133 133 133 131 127 125 125 126 126 125 126 126 125 124 127
205 232 274 286 301 296 276 273 274 266 258 256 262 270 289 299 303 302 292 261 226 163 145 141 141 141 141 140 138 135 133 130 126 124 125 127 127 126 126 127 127 127 128 132
217 222 257 290 307 283 293 293 288 287 280 266 262 274 288 297 312 321 320 236 159 145 141 139 138 136 135 133 132 129 128 127 125 124 126 128 128 127 128 129 127 126 128 133
217 218 244 272 288 285 291 302 302 304 301 320 295 289 293 295 304 3 22 101 133 137 135 134 135 133 132 133 133 129 126 126 125 126 128 130 130 130 131 129 127 128 131 129
207 212 229 257 284 281 308 341 313 277 320 357 345 328 319 320 37 33 47 97 112 119 123 126 128 129 131 134 134 128 127 126 126 127 127 128 129 129 128 127 126 122 121 104
176 199 222 240 258 273 291 315 297 331 336 333 335 338 338 35 54 82 93 101 110 116 122 126 128 129 132 135 131 125 123 123 123 122 121 120 120 120 121 119 117 119 111 330
195 197 205 211 231 258 297 321 313 316 313 312 321 341 94 107 100 101 104 107 112 116 122 125 123 123 129 132 128 120 119 121 121 119 116 115 115 114 117 118 117 111 57 321
213 213 211 218 239 277 295 272 292 301 292 303 311 345 137 124 116 113 111 113 115 118 121 123 122 121 121 122 123 120 123 125 122 118 116 115 114 111 115 115 112 96 352 328
225 210 229 256 265 275 284 288 297 316 306 322 318 152 148 133 128 121 118 117 117 118 121 123 121 118 114 113 114 120 125 126 123 120 120 120 118 115 111 102 84 16 342 329
233 191 224 253 274 288 286 325 355 55 65 74 85 109 129 129 127 124 120 118 118 118 120 120 118 116 115 116 116 120 125 126 121 120 119 117 114 115 108 90 31 342 332 322
213 207 217 249 278 279 325 34 67 86 86 98 104 103 109 120 122 119 115 116 117 117 117 115 114 115 116 116 115 117 123 124 123 121 119 115 114 107 86 34 348 256 293 317
Height
1486 1487 1484 1482 1483 1481 1483 1482 1480 1478 1478 1478 1468 1459 1457 1458 1457 1455 1454 1453 1452 1452 1453 1454 1455 1456 1457 1459 1462 1465 1467 1469 1471 1473 1475 1478 1481 1485 1489 1492 1495 1498 1502 1504
1486 1484 1480 1482 1485 1486 1485 1484 1481 1478 1478 1478 1465 1452 1448 1447 1445 1444 1443 1442 1442 1442 1443 1444 1446 1448 1449 1451 1454 1457 1460 1462 1464 1467 1470 1473 1476 1480 1484 1487 1491 1495 1498 1501
1477 1480 1480 1483 1485 1485 1483 1483 1479 1479 1477 1473 1468 1442 1429 1427 1431 1433 1434 1433 1432 1432 1432 1433 1435 1438 1440 1443 1446 1449 1453 1455 1458 1461 1463 1466 1470 1474 1479 1483 1487 1491 1495 1498
1477 1478 1481 1482 1482 1482 1481 1479 1481 1481 1480 1471 1469 1452 1420 1422 1424 1425 1426 1424 1422 1422 1422 1423 1424 1427 1430 1434 1438 1442 1445 1448 1451 1454 1457 1460 1464 1469 1474 1479 1484 1488 1492 1495
1474 1477 1478 1479 1478 1480 1478 1480 1481 1479 1478 1475 1465 1465 1420 1416 1417 1416 1417 1416 1415 1415 1414 1414 1415 1418 1422 1426 1430 1435 1438 1442 1445 1449 1452 1457 1461 1465 1471 1476 1480 1485 1489 1493
1472 1475 1476 1475 1476 1478 1479 1481 1479 1477 1478 1472 1448 1450 1417 1403 1404 1406 1408 1408 1408 1408 1408 1407 1408 1410 1414 1418 1421 1427 1431 1435 1439 1443 1447 1451 1455 1461 1466 1472 1477 1482 1486 1490
1470 1470 1472 1475 1475 1478 1479 1481 1474 1471 1470 1454 1437 1437 1414 1399 1403 1404 1404 1403 1402 1402 1401 1400 1401 1402 1405 1408 1412 1419 1424 1429 1433 1438 1442 1447 1452 1459 1464 1469 1474 1479 1484 1488
1465 1461 1466 1469 1469 1471 1473 1474 1469 1460 1444 1432 1431 1427 1403 1397 1400 1401 1401 1400 1398 1397 1395 1394 1394 1395 1397 1400 1405 1411 1417 1423 1428 1433 1438 1443 1450 1456 1462 1467 1472 1478 1482 1486
1460 1459 1463 1465 1467 1468 1470 1471 1465 1463 1453 1447 1425 1407 1396 1394 1396 1396 1395 1394 1393 1391 1389 1388 1388 1388 1390 1393 1398 1405 1411 1417 1423 1428 1433 1440 1447 1453 1459 1465 1471 1477 1481 1484
1457 1460 1460 1463 1467 1467 1464 1463 1467 1468 1456 1435 1410 1398 1389 1383 1387 1389 1389 1388 1387 1386 1384 1382 1381 1382 1385 1388 1393 1400 1407 1412 1418 1424 1431 1437 1444 1452 1458 1464 1470 1475 1479 1483
1457 1461 1459 1461 1460 1456 1463 1466 1463 1456 1450 1438 1414 1390 1378 1381 1383 1385 1385 1384 1383 1381 1379 1377 1377 1378 1381 1385 1390 1396 1403 1409 1415 1422 1429 1436 1443 1451 1457 1464 1469 1474 1478 1480
1455 1458 1455 1449 1446 1449 1449 1449 1452 1452 1441 1433 1421 1392 1379 1381 1381 1382 1382 1380 1378 1376 1374 1373 1373 1375 1378 1382 1388 1393 1400 1407 1414 1421 1428 1436 1443 1450 1457 1463 1468 1472 1476 1478
1452 1457 1451 1437 1445 1449 1448 1442 1441 1442 1438 1427 1419 1393 1377 1379 1379 1379 1378 1376 1373 1372 1371 1370 1371 1374 1377 1382 1387 1393 1399 1406 1414 1421 1429 1436 1443 1451 1457 1462 1467 1471 1474 1476
1449 1450 1446 1434 1426 1434 1438 1435 1434 1437 1429 1414 1401 1386 1376 1376 1375 1374 1373 1370 1369 1368 1369 1369 1371 1374 1378 1383 1387 1393 1400 1407 1415 1423 1430 1437 1445 1451 1457 1462 1466 1469 1472 1474
1447 1444 1440 1435 1431 1429 1426 1422 1420 1421 1416 1409 1390 1383 1372 1371 1371 1369 1368 1366 1366 1366 1368 1369 1372 1375 1379 1384 1389 1394 1401 1409 1417 1424 1431 1439 1446 1452 1457 1462 1465 1468 1470 1472
1441 1439 1435 1429 1422 1417 1413 1408 1406 1404 1402 1397 1389 1379 1370 1369 1368 1365 1364 1364 1365 1366 1368 1370 1373 1376 1380 1385 1390 1396 1404 1411 1419 1426 1433 1441 1447 1453 1458 1462 1464 1467 1468 1470
1436 1436 1433 1420 1411 1410 1402 1396 1396 1394 1389 1387 1383 1373 1367 1366 1365 1363 1362 1362 1363 1365 1367 1370 1374 1378 1382 1387 1392 1399 1406 1414 1422 1429 1436 1443 1449 1454 1458 1461 1464 1465 1467 1468
1431 1432 1432 1423 1415 1406 1391 1390 1391 1387 1381 1378 1375 1370 1367 1366 1364 1363 1361 1360 1362 1365 1368 1372 1376 1380 1385 1391 1397 1403 1411 1418 1426 1433 1439 1445 1450 1454 1458 1460 1463 1464 1465 1465
1427 1429 1429 1423 1413 1399 1388 1388 1388 1386 1379 1374 1370 1367 1365 1365 1364 1363 1362 1362 1363 1367 1370 1374 1379 1383 1388 1395 1401 1408 1415 1423 1430 1436 1441 1446 1451 1455 1458 1460 1462 1463 1463 1463
1423 1426 1427 1421 1415 1401 1386 1386 1385 1387 1377 1373 1370 1367 1366 1365 1362 1367 1367 1366 1368 1371 1374 1378 1383 1388 1394 1400 1407 1413 1420 1426 1432 1438 1443 1448 1452 1455 1458 1459 1460 1461 1461 1460
1418 1421 1421 1418 1414 1396 1385 1385 1385 1383 1380 1375 1372 1370 1369 1368 1370 1372 1371 1372 1374 1376 1379 1384 1388 1394 1400 1406 1412 1418 1424 1430 1435 1441 1445 1449 1453 1455 1457 1458 1459 1459 1458 1457
1407 1410 1411 1410 1408 1397 1383 1384 1383 1381 1378 1376 1373 1372 1371 1372 1373 1374 1375 1376 1378 1381 1385 1389 1394 1399 1406 1412 1417 1422 1427 1433 1438 1443 1447 1450 1453 1455 1457 1457 1457 1457 1456 1454
1401 1400 1398 1398 1392 1384 1383 1383 1381 1380 1377 1375 1373 1372 1372 1373 1375 1376 1378 1380 1383 1386 1390 1394 1399 1404 1410 1416 1422 1425 1431 1436 1441 1445 1448 1451 1453 1455 1456 1456 1455 1454 1453 1450
1397 1398 1397 1393 1385 1383 1381 1380 1378 1377 1375 1373 1371 1371 1372 1373 1376 1378 1380 1383 1387 1390 1394 1399 1403 1408 1414 1420 1426 1431 1435 1439 1443 1447 1449 1452 1453 1454 1454 1454 1453 1451 1449 1447
1391 1394 1393 1389 1383 1380 1378 1378 1377 1375 1374 1372 1371 1371 1373 1374 1377 1380 1383 1387 1390 1394 1399 1403 1408 1412 1418 1425 1430 1435 1439 1442 1445 1448 1450 1452 1453 1453 1453 1452 1451 1449 1446 1444
1387 1387 1386 1382 1380 1380 1379 1378 1377 1376 1375 1374 1374 1374 1376 1378 1380 1383 1387 1391 1395 1398 1403 1407 1413 1418 1423 1429 1434 1438 1442 1445 1447 1449 1450 1451 1452 1452 1451 1450 1448 1445 1444 1440